Flag for Australia Weather past 2 weeks in Ballarat, Victoria, Australia

Now
53 °F

Cool.


Feels Like: 51 °F
Forecast: 47 / 77 °F
Wind: 6 mph from East

Location: Sheoaks Aws

Current Time: Oct 26, 2014 at 3:29:13 AM

Latest Report: Oct 26, 2014 at 1:00 AM


Visibility: N/A

Pressure: 29.98 "Hg

Humidity: 86%

Dew point: 49 °F

Location of BallaratLocation

Historic Weather in Ballarat — Graph

°F

Ballarat temperature yesterday

Maximum temperature yesterday: 67 °F (at 3:00 PM)
Minimum temperature yesterday: 52 °F (at 6:00 AM)
Average temperature yesterday: 57 °F

Past Weeks' High & Low Weather Summary

 TemperatureHumidityPressure
High88 °F (Oct 22, 4:00 PM)100% (Oct 24, 7:00 AM)30.44 "Hg (Oct 24, 7:00 AM)
Low37 °F (Oct 17, 6:00 AM)19% (Oct 19, 1:00 PM)29.70 "Hg (Oct 12, 4:00 PM)
Average56 °F71%30.11 "Hg
* Reported Oct 11 1:00 AM — Oct 26 1:00 AM, Ballarat, Weather by CustomWeather, © 2014

Note: Actual official high and low records may vary slightly from our data, if they occured in-between our weather recording intervals... More about our weather records

Advertising

Ballarat weather history for previous 24 hours

 ConditionsComfort  
Time TempWeatherWind HumidityBarometerVisibility
1:00 AM
Oct 26
53 °FCool.6 mph86%29.98 "HgN/A
12:00 AM54 °FCool.5 mph85%29.99 "HgN/A
10:00 PM
Oct 25
53 °FCool.2 mph85%30.03 "HgN/A
9:00 PM52 °FCool.5 mph87%30.02 "HgN/A
7:00 PM56 °FCool.8 mph71%29.99 "HgN/A
6:00 PM60 °FCool.9 mph65%29.99 "HgN/A
4:00 PM67 °FMild.10 mph54%29.96 "HgN/A
3:00 PM67 °FMild.8 mph53%29.97 "HgN/A
1:00 PM62 °FCool.3 mph66%30.02 "HgN/A
12:00 PM59 °FCool.5 mph70%30.04 "HgN/A
10:00 AM55 °FCool.7 mph82%30.06 "HgN/A
9:00 AM55 °FCool.6 mph84%30.05 "HgN/A
7:00 AM52 °FCool.No wind95%30.04 "HgN/A
6:00 AM52 °FCool.1 mph94%30.03 "HgN/A
4:00 AM54 °FCool.2 mph81%30.01 "HgN/A
3:00 AM54 °FCool.5 mph82%30.01 "HgN/A
Weather by CustomWeather, © 2014

See weather overviewHow to use our weather pages